SCP
0 0 0 0 0 0 0 0 0 -0 0 0 0 0 0 0 0 0 0 0 0 0 0 0 0 0 0 0 0 0 0 0 0 0 0 0 0 0 0 0 0 0 0 0
0 0 0 0 0 0 0 0 0 0 0 -0 0 0 0 0 0 0 0 0 0 0 0 0 0 0 0 0 0 0 0 0 0 0 0 0 0 0 0 0 0 0 0 0
0 0 0 0 0 0 0 0 0 0 0 0 0 -0 0 0 0 0 0 0 0 0 0 0 0 0 0 0 0 0 0 0 0 0 0 0 0 0 0 0 0 0 0 0
0 0 0 0 0 0 0 0 0 0 0 0 -0 -0 -0 -0 0 0 0 0 0 0 0 0 0 0 0 0 0 0 0 0 0 0 0 0 0 0 0 0 0 0 0 0
0 0 -0 0 0 0 0 0 0 0 0 0 0 0 0 0 0 0 0 0 0 0 0 0 0 0 0 0 0 0 0 0 0 0 0 0 0 0 0 0 0 0 0 0
0 0 0 0 0 0 0 0 0 0 0 0 0 0 0 0 0 0 0 0 0 0 0 0 0 0 0 0 0 0 0 0 0 0 0 0 0 0 0 0 0 0 0 0
0 0 0 0 0 0 0 0 0 0 0 0 0 0 0 0 0 0 0 0 0 0 0 0 0 0 0 0 0 0 0 0 0 0 0 0 0 0 0 0 0 0 0 0
0 0 0 -0 -0 0 0 0 0 0 0 0 0 0 0 0 0 0 0 0 0 0 0 0 0 0 0 0 0 0 0 0 0 0 0 0 0 0 0 0 0 0 0 0
0 0 0 0 0 0 0 0 0 0 0 0 0 0 0 0 0 0 0 0 0 0 0 0 0 0 0 0 0 0 0 0 0 0 0 0 0 0 0 0 0 0 0 0
0 0 0 -0 0 0 0 0 0 0 0 0 0 0 0 0 0 0 0 0 0 0 0 0 0 0 0 0 0 0 0 0 0 0 0 0 0 0 0 0 0 0 0 0
0 0 0 0 0 0 0 0 0 0 0 0 0 0 0 0 0 0 0 0 0 0 0 0 0 0 0 0 0 0 0 0 0 0 0 0 0 0 0 0 0 0 0 0
0 0 0 0 0 0 0 0 0 0 0 0 0 0 0 0 0 0 0 0 0 0 0 0 0 0 0 0 0 0 0 0 0 0 0 0 0 0 0 0 0 0 0 0
-0 0 0 0 0 0 0 0 0 0 0 -0 0 0 0 0 0 0 0 0 0 0 0 0 0 0 0 0 0 0 0 0 0 0 0 0 0 0 0 0 0 0 0 0
-0 -0 -0 -0 -0 0 -0 0 -0 0 0 0 0 0 0 0 0 0 0 0 0 0 -0 0 0 0 0 0 0 0 0 0 0 0 0 0 0 0 0 0 0 0 0 0
-0 0 -0 0 0 -0 -0 0 0 -0 0 0 0 0 0 0 0 0 0 0 0 0 0 0 0 0 0 0 0 0 0 0 0 0 0 0 0 0 0 0 0 0 0 0
-0 0 -0 0 -0 -0 0 0 0 0 0 -0 0 0 0 0 0 0 0 0 0 0 0 0 0 0 0 0 0 0 0 0 0 0 0 0 0 0 0 0 0 0 0 0
0 0 -0 -0 -0 -0 -0 -0 -0 0 0 -0 0 0 0 0 0 0 0 0 0 0 0 0 0 0 0 0 0 0 0 0 0 0 0 0 0 0 0 0 0 0 0 0
0 -0 -0 -0 -0 -0 -0 -0 -0 -0 -0 0 0 0 0 0 0 -0 -0 0 0 0 0 0 0 0 0 0 0 0 0 0 0 -0 -0 -0 0 0 0 0 0 0 0 0
0 0 0 -0 -0 -0 -0 -0 -0 -0 -0 -0 -0 -0 -0 -0 -0 -0 0 0 0 0 0 0 0 0 -0 -0 0 0 0 0 -0 -0 -0 0 0 0 0 0 0 0 0 0
0 0 0 0 0 0 0 0 0 0 0 0 0 0 0 0 0 0 0 0 0 0 0 0 0 0 0 0 0 -0 0 0 0 -0 0 -0 0 0 0 0 0 0 0 0
0 0 0 0 0 0 0 0 0 0 0 0 0 0 0 0 0 0 0 0 0 0 0 0 0 0 0 0 0 0 0 0 -0 -0 -0 -0 -0 0 0 0 0 0 0 0
0 0 0 0 0 0 -0 0 0 0 0 -0 0 0 0 -0 -0 -0 -0 0 0 0 0 0 0 0 0 0 0 0 -0 -0 -0 -0 -0 -0 -0 -0 0 0 0 0 0 0
0 0 0 0 0 0 -0 -0 -0 -0 0 -0 0 0 0 0 0 0 -0 0 0 0 0 0 0 0 0 0 0 0 0 -0 -0 -0 -0 -0 -0 -0 -0 -0 -0 0 0 0
0 0 0 0 0 0 0 0 -0 -0 0 0 -0 -0 -0 -0 0 0 0 0 0 0 0 0 0 0 0 0 -0 -0 0 -0 -0 -0 -0 -0 -0 -0 -0 -0 -0 0 0 0
-0 -0 0 0 0 -0 0 0 0 0 0 0 0 0 0 0 0 0 0 0 0 0 0 0 0 0 0 0 -0 -0 -0 -0 -0 -0 -0 -0 -0 -0 -0 -0 -0 -0 0 0
-0 -0 -0 -0 -0 0 0 0 -0 0 0 0 0 0 0 0 0 0 0 0 0 0 0 0 0 0 -0 -0 -0 -0 -0 -0 -0 -0 -0 -0 -0 0 0 0 0 0 -0 -0
-0 -0 -0 -0 -0 -0 -0 0 0 0 0 0 0 0 0 0 0 0 0 0 0 0 0 0 0 -0 -0 -0 -0 -0 0 0 0 -0 -0 -0 0 -0 -0 -0 -0 0 0 0
Wind_Speed_500mb
33 40 38 39 40 26 20 10 12 26 27 29 32 14 37 40 32 17 18 28 46 28 18 28 46 44 39 38 40 48 53 52 51 46 44 43 45 49 51 57 62 62 64 67
39 37 36 44 39 31 24 24 27 16 33 2 12 52 62 55 35 28 31 18 30 35 16 18 39 50 53 52 52 48 60 60 51 47 46 45 44 44 55 60 61 64 68 73
37 32 34 27 28 24 24 15 21 20 27 11 13 9 6 35 40 29 15 16 24 28 28 29 35 69 53 52 52 60 66 66 60 54 49 45 43 46 53 57 61 68 75 81
25 19 30 22 20 33 33 28 27 32 26 22 16 11 23 7 26 11 9 17 13 37 22 8 17 41 18 4 42 54 62 58 51 46 40 39 41 49 55 64 72 77 79 82
18 25 29 38 28 25 21 36 17 26 33 49 43 31 10 31 21 19 18 21 17 20 8 7 11 31 18 17 8 46 50 45 42 39 40 43 47 56 65 70 76 77 79 78
11 11 14 10 29 57 35 39 31 23 13 25 41 11 4 33 18 25 25 14 12 8 8 11 10 7 11 7 20 31 35 41 38 37 39 45 53 61 66 70 74 73 69 67
14 8 12 26 32 33 15 13 16 22 25 31 13 7 14 20 18 12 11 7 7 9 13 16 19 16 6 17 28 34 37 33 29 37 42 50 57 60 63 67 64 64 65 62
7 6 20 16 21 11 7 15 22 20 26 29 30 30 20 22 9 10 19 13 9 12 20 20 22 23 13 18 29 34 34 32 37 42 50 52 53 56 54 54 57 56 58 67
10 11 37 64 42 25 22 34 30 28 39 33 33 34 28 20 18 14 8 15 14 18 24 26 25 18 16 30 36 36 34 38 40 46 45 46 45 43 48 47 45 54 67 73
18 21 16 39 56 54 48 50 45 42 37 35 35 32 29 26 17 10 13 12 21 29 35 32 20 16 24 33 35 33 37 37 43 40 37 32 32 39 40 46 54 55 64 76
30 43 38 58 59 62 67 53 39 36 35 38 31 38 36 20 16 23 18 21 24 29 34 39 20 34 36 36 34 34 37 34 27 25 23 28 30 35 44 43 52 61 63 72
26 49 35 56 61 65 60 47 46 52 48 47 35 46 36 26 27 21 24 17 21 28 27 35 31 38 44 39 35 34 27 19 20 22 21 23 34 42 40 47 45 52 50 48
57 71 75 86 79 67 62 61 48 34 45 48 40 35 23 23 20 24 33 27 20 26 25 22 24 38 33 37 27 23 14 16 17 17 23 28 27 38 48 47 42 44 42 41
64 56 62 83 50 46 51 58 51 35 44 45 34 39 36 31 26 24 22 21 25 27 26 25 41 33 32 22 16 10 4 8 14 16 13 18 26 32 38 45 51 52 44 44
29 29 50 64 51 62 49 52 56 54 57 54 52 45 40 39 25 27 16 22 27 30 19 32 33 28 22 14 7 5 4 6 6 6 12 19 21 26 33 40 44 46 49 48
48 38 46 53 38 45 29 25 37 37 50 47 54 50 42 27 30 34 25 22 26 20 37 35 26 18 13 13 9 4 7 15 19 12 15 16 22 27 34 40 42 45 48 50
43 32 24 16 11 8 9 22 16 23 19 21 15 26 33 28 27 21 13 12 24 40 37 26 20 16 15 19 17 7 2 7 11 11 13 18 24 28 33 38 44 48 48 46
27 29 21 15 14 15 21 17 20 23 17 19 18 30 31 26 15 11 10 30 44 24 16 20 20 14 12 27 20 13 2 3 11 8 12 18 25 31 32 35 41 49 51 49
7 8 16 13 18 27 26 24 30 25 14 23 28 48 49 43 33 28 31 45 32 36 28 27 20 24 25 23 17 17 10 2 10 13 12 20 25 28 35 39 41 46 51 55
41 25 1 6 9 5 8 9 8 13 26 20 37 33 38 55 56 59 50 43 36 30 34 24 26 22 15 7 6 17 10 2 9 13 15 19 25 26 36 45 49 49 48 54
58 58 56 55 57 51 50 48 54 60 57 57 63 68 70 66 60 51 49 45 38 32 25 20 20 16 12 7 14 27 5 13 15 21 24 21 29 39 41 46 52 53 52 53
52 56 55 51 50 49 45 41 42 47 46 46 50 50 50 46 44 43 42 43 34 31 24 19 22 19 27 33 40 17 25 24 36 33 34 36 37 36 38 40 41 44 48 53
46 47 46 47 43 39 35 38 41 36 31 30 35 35 39 38 33 33 41 37 31 23 19 25 22 22 27 29 31 27 34 46 45 43 41 41 38 36 37 45 46 50 57 60
34 33 39 39 37 39 42 35 28 27 31 31 28 23 22 29 38 40 36 30 23 28 32 29 31 37 40 37 29 34 33 36 40 38 35 36 37 45 50 55 60 64 70 74
46 43 38 39 37 34 33 32 30 29 29 31 31 31 36 39 40 37 34 32 31 33 30 31 31 29 20 23 31 36 37 36 33 29 29 30 35 41 47 52 57 64 70 76
27 31 29 29 25 28 32 26 28 21 29 29 33 36 37 35 34 30 29 30 33 30 29 28 29 33 36 37 34 31 30 30 29 29 28 28 29 33 39 47 54 60 63 67
30 13 18 22 27 23 25 16 20 23 28 33 35 30 31 30 26 26 29 29 26 26 29 32 31 25 20 19 25 32 29 27 25 26 28 29 31 35 39 44 49 54 59 64
Wind_Direction_500mb
324 323 318 306 305 315 300 251 166 274 293 298 348 27 4 35 24 92 92 50 37 37 100 162 182 188 185 190 200 207 210 222 229 238 243 246 253 261 277 286 288 296 298 299
301 310 308 306 304 283 283 293 297 231 269 334 350 360 349 352 3 35 45 32 25 6 42 91 33 207 199 201 206 206 208 216 219 220 226 238 249 262 281 291 293 292 295 298
276 291 306 303 281 301 297 290 302 281 276 284 315 117 265 324 331 346 38 250 279 342 351 97 60 15 211 206 211 210 210 213 218 225 226 233 251 275 283 281 282 286 290 293
268 274 268 259 267 282 286 284 285 292 298 314 303 226 176 183 274 305 296 69 189 244 336 342 325 337 357 194 212 208 199 198 204 212 221 240 263 275 274 276 284 289 293 294
251 256 272 272 268 281 290 286 304 316 315 312 324 347 167 109 77 39 22 42 78 92 112 176 243 270 336 3 201 200 186 193 207 216 235 253 267 274 279 284 289 292 295 297
258 254 255 253 250 251 265 273 280 292 327 321 305 304 351 7 334 297 318 336 20 3 315 295 308 308 280 254 230 192 191 208 215 233 256 271 278 282 285 290 293 296 301 307
234 239 261 253 267 299 261 256 326 350 330 338 352 68 27 9 0 34 44 347 293 16 7 320 302 319 318 218 205 202 210 221 236 258 272 278 283 288 291 294 299 308 308 310
262 224 263 243 241 206 173 295 337 334 304 313 319 333 351 355 24 331 9 349 351 344 320 316 304 290 259 227 215 218 226 243 261 275 283 288 289 290 293 302 305 309 310 303
265 245 307 305 300 262 232 258 253 250 281 289 293 295 317 312 330 327 336 348 349 336 328 324 322 292 238 217 228 234 243 255 269 283 284 287 292 297 301 304 305 301 302 306
257 252 256 287 288 291 286 255 256 256 257 272 279 281 283 277 258 283 296 308 315 306 314 328 322 262 229 223 233 245 254 266 280 281 288 293 298 302 301 301 302 304 307 309
257 263 269 264 262 268 270 269 268 232 237 264 259 264 270 274 296 283 269 289 320 305 303 307 284 239 228 235 245 253 264 275 279 285 286 290 293 289 295 294 300 305 306 309
254 259 256 264 263 267 273 272 263 244 237 242 244 257 267 256 243 286 290 259 272 281 296 303 212 220 230 244 254 265 260 260 271 278 292 284 285 291 291 303 316 310 311 307
248 260 259 268 263 263 264 267 260 238 255 238 237 247 264 252 267 276 273 241 255 276 288 271 216 211 226 249 258 254 254 262 276 273 275 292 301 314 324 331 330 326 332 324
270 262 253 255 256 265 251 242 241 254 238 233 246 239 250 249 250 263 237 250 259 279 300 272 206 201 225 246 249 244 241 271 300 290 308 319 331 337 332 337 342 339 345 346
298 313 302 276 287 261 244 242 252 260 241 238 240 239 240 239 227 224 238 262 274 283 267 183 178 198 232 242 221 165 221 348 2 34 355 347 348 349 351 350 350 351 353 357
289 285 287 283 279 249 231 253 267 271 243 238 240 238 230 232 228 234 227 259 283 234 175 169 182 216 239 162 178 113 58 25 34 16 2 1 7 6 6 2 4 7 9 6
268 259 288 327 228 117 211 238 256 246 258 228 219 191 184 195 196 212 206 258 191 159 159 167 204 221 197 183 160 175 123 20 11 9 7 23 21 21 18 15 17 18 18 19
276 255 256 264 281 296 294 276 270 282 252 244 234 230 212 185 197 231 210 194 175 160 156 166 167 178 152 151 150 148 181 351 18 24 18 17 20 26 19 17 19 21 22 21
353 289 213 222 277 301 301 279 274 239 234 207 232 238 229 221 202 199 182 152 155 157 167 169 157 144 133 130 143 143 200 301 29 18 2 9 30 34 27 27 27 28 27 25
53 40 40 72 56 32 71 103 108 155 182 159 134 138 141 170 170 154 147 147 144 145 141 152 153 137 131 130 96 150 172 6 15 20 26 40 46 35 35 34 32 29 27 26
64 76 86 85 89 94 96 103 108 107 107 106 106 109 116 121 127 132 135 137 143 141 146 141 144 145 127 104 144 151 135 15 34 76 72 60 47 45 39 35 30 27 26 26
74 76 83 86 79 89 88 87 103 104 107 107 107 111 112 117 124 128 134 136 137 143 143 140 154 126 106 108 143 111 43 55 97 86 70 65 54 40 32 32 30 27 33 33
82 83 80 75 76 81 89 89 97 99 104 109 122 115 121 130 133 133 136 134 126 129 132 136 127 123 132 122 141 77 72 74 84 76 66 62 56 45 47 50 47 45 45 48
73 80 75 72 73 76 78 95 99 91 97 104 106 113 123 131 125 127 124 123 121 122 122 114 102 93 98 119 108 79 73 73 73 74 71 68 56 58 62 63 64 62 59 56
75 70 73 74 75 74 74 79 87 90 98 103 106 110 117 121 119 117 117 118 119 124 118 112 105 96 100 123 106 99 94 94 88 90 81 74 67 63 65 66 64 63 61 58
75 75 69 63 65 73 77 65 65 109 111 105 110 117 121 120 118 118 118 117 118 124 109 99 102 127 112 109 107 104 97 93 89 83 78 76 74 71 69 68 66 64 61 58
69 46 55 69 71 90 94 87 63 75 120 117 109 114 122 120 113 114 117 124 130 125 113 104 100 103 110 114 115 107 98 93 92 90 85 81 78 79 78 74 70 66 61 58
Wind_Speed_850mb
33 40 38 39 40 26 20 10 12 26 27 29 32 14 37 40 32 17 18 28 46 28 18 28 46 44 39 38 40 48 53 52 51 46 44 43 45 49 51 57 62 62 64 67
39 37 36 44 39 31 24 24 27 16 33 2 12 52 62 55 35 28 31 18 30 35 16 18 39 50 53 52 52 48 60 60 51 47 46 45 44 44 55 60 61 64 68 73
37 32 34 27 28 24 24 15 21 20 27 11 13 9 6 35 40 29 15 16 24 28 28 29 35 69 53 52 52 60 66 66 60 54 49 45 43 46 53 57 61 68 75 81
25 19 30 22 20 33 33 28 27 32 26 22 16 11 23 7 26 11 9 17 13 37 22 8 17 41 18 4 42 54 62 58 51 46 40 39 41 49 55 64 72 77 79 82
18 25 29 38 28 25 21 36 17 26 33 49 43 31 10 31 21 19 18 21 17 20 8 7 11 31 18 17 8 46 50 45 42 39 40 43 47 56 65 70 76 77 79 78
11 11 14 10 29 57 35 39 31 23 13 25 41 11 4 33 18 25 25 14 12 8 8 11 10 7 11 7 20 31 35 41 38 37 39 45 53 61 66 70 74 73 69 67
14 8 12 26 32 33 15 13 16 22 25 31 13 7 14 20 18 12 11 7 7 9 13 16 19 16 6 17 28 34 37 33 29 37 42 50 57 60 63 67 64 64 65 62
7 6 20 16 21 11 7 15 22 20 26 29 30 30 20 22 9 10 19 13 9 12 20 20 22 23 13 18 29 34 34 32 37 42 50 52 53 56 54 54 57 56 58 67
10 11 37 64 42 25 22 34 30 28 39 33 33 34 28 20 18 14 8 15 14 18 24 26 25 18 16 30 36 36 34 38 40 46 45 46 45 43 48 47 45 54 67 73
18 21 16 39 56 54 48 50 45 42 37 35 35 32 29 26 17 10 13 12 21 29 35 32 20 16 24 33 35 33 37 37 43 40 37 32 32 39 40 46 54 55 64 76
30 43 38 58 59 62 67 53 39 36 35 38 31 38 36 20 16 23 18 21 24 29 34 39 20 34 36 36 34 34 37 34 27 25 23 28 30 35 44 43 52 61 63 72
26 49 35 56 61 65 60 47 46 52 48 47 35 46 36 26 27 21 24 17 21 28 27 35 31 38 44 39 35 34 27 19 20 22 21 23 34 42 40 47 45 52 50 48
57 71 75 86 79 67 62 61 48 34 45 48 40 35 23 23 20 24 33 27 20 26 25 22 24 38 33 37 27 23 14 16 17 17 23 28 27 38 48 47 42 44 42 41
64 56 62 83 50 46 51 58 51 35 44 45 34 39 36 31 26 24 22 21 25 27 26 25 41 33 32 22 16 10 4 8 14 16 13 18 26 32 38 45 51 52 44 44
29 29 50 64 51 62 49 52 56 54 57 54 52 45 40 39 25 27 16 22 27 30 19 32 33 28 22 14 7 5 4 6 6 6 12 19 21 26 33 40 44 46 49 48
48 38 46 53 38 45 29 25 37 37 50 47 54 50 42 27 30 34 25 22 26 20 37 35 26 18 13 13 9 4 7 15 19 12 15 16 22 27 34 40 42 45 48 50
43 32 24 16 11 8 9 22 16 23 19 21 15 26 33 28 27 21 13 12 24 40 37 26 20 16 15 19 17 7 2 7 11 11 13 18 24 28 33 38 44 48 48 46
27 29 21 15 14 15 21 17 20 23 17 19 18 30 31 26 15 11 10 30 44 24 16 20 20 14 12 27 20 13 2 3 11 8 12 18 25 31 32 35 41 49 51 49
7 8 16 13 18 27 26 24 30 25 14 23 28 48 49 43 33 28 31 45 32 36 28 27 20 24 25 23 17 17 10 2 10 13 12 20 25 28 35 39 41 46 51 55
41 25 1 6 9 5 8 9 8 13 26 20 37 33 38 55 56 59 50 43 36 30 34 24 26 22 15 7 6 17 10 2 9 13 15 19 25 26 36 45 49 49 48 54
58 58 56 55 57 51 50 48 54 60 57 57 63 68 70 66 60 51 49 45 38 32 25 20 20 16 12 7 14 27 5 13 15 21 24 21 29 39 41 46 52 53 52 53
52 56 55 51 50 49 45 41 42 47 46 46 50 50 50 46 44 43 42 43 34 31 24 19 22 19 27 33 40 17 25 24 36 33 34 36 37 36 38 40 41 44 48 53
46 47 46 47 43 39 35 38 41 36 31 30 35 35 39 38 33 33 41 37 31 23 19 25 22 22 27 29 31 27 34 46 45 43 41 41 38 36 37 45 46 50 57 60
34 33 39 39 37 39 42 35 28 27 31 31 28 23 22 29 38 40 36 30 23 28 32 29 31 37 40 37 29 34 33 36 40 38 35 36 37 45 50 55 60 64 70 74
46 43 38 39 37 34 33 32 30 29 29 31 31 31 36 39 40 37 34 32 31 33 30 31 31 29 20 23 31 36 37 36 33 29 29 30 35 41 47 52 57 64 70 76
27 31 29 29 25 28 32 26 28 21 29 29 33 36 37 35 34 30 29 30 33 30 29 28 29 33 36 37 34 31 30 30 29 29 28 28 29 33 39 47 54 60 63 67
30 13 18 22 27 23 25 16 20 23 28 33 35 30 31 30 26 26 29 29 26 26 29 32 31 25 20 19 25 32 29 27 25 26 28 29 31 35 39 44 49 54 59 64
Wind_Direction_850mb
324 323 318 306 305 315 300 251 166 274 293 298 348 27 4 35 24 92 92 50 37 37 100 162 182 188 185 190 200 207 210 222 229 238 243 246 253 261 277 286 288 296 298 299
301 310 308 306 304 283 283 293 297 231 269 334 350 360 349 352 3 35 45 32 25 6 42 91 33 207 199 201 206 206 208 216 219 220 226 238 249 262 281 291 293 292 295 298
276 291 306 303 281 301 297 290 302 281 276 284 315 117 265 324 331 346 38 250 279 342 351 97 60 15 211 206 211 210 210 213 218 225 226 233 251 275 283 281 282 286 290 293
268 274 268 259 267 282 286 284 285 292 298 314 303 226 176 183 274 305 296 69 189 244 336 342 325 337 357 194 212 208 199 198 204 212 221 240 263 275 274 276 284 289 293 294
251 256 272 272 268 281 290 286 304 316 315 312 324 347 167 109 77 39 22 42 78 92 112 176 243 270 336 3 201 200 186 193 207 216 235 253 267 274 279 284 289 292 295 297
258 254 255 253 250 251 265 273 280 292 327 321 305 304 351 7 334 297 318 336 20 3 315 295 308 308 280 254 230 192 191 208 215 233 256 271 278 282 285 290 293 296 301 307
234 239 261 253 267 299 261 256 326 350 330 338 352 68 27 9 0 34 44 347 293 16 7 320 302 319 318 218 205 202 210 221 236 258 272 278 283 288 291 294 299 308 308 310
262 224 263 243 241 206 173 295 337 334 304 313 319 333 351 355 24 331 9 349 351 344 320 316 304 290 259 227 215 218 226 243 261 275 283 288 289 290 293 302 305 309 310 303
265 245 307 305 300 262 232 258 253 250 281 289 293 295 317 312 330 327 336 348 349 336 328 324 322 292 238 217 228 234 243 255 269 283 284 287 292 297 301 304 305 301 302 306
257 252 256 287 288 291 286 255 256 256 257 272 279 281 283 277 258 283 296 308 315 306 314 328 322 262 229 223 233 245 254 266 280 281 288 293 298 302 301 301 302 304 307 309
257 263 269 264 262 268 270 269 268 232 237 264 259 264 270 274 296 283 269 289 320 305 303 307 284 239 228 235 245 253 264 275 279 285 286 290 293 289 295 294 300 305 306 309
254 259 256 264 263 267 273 272 263 244 237 242 244 257 267 256 243 286 290 259 272 281 296 303 212 220 230 244 254 265 260 260 271 278 292 284 285 291 291 303 316 310 311 307
248 260 259 268 263 263 264 267 260 238 255 238 237 247 264 252 267 276 273 241 255 276 288 271 216 211 226 249 258 254 254 262 276 273 275 292 301 314 324 331 330 326 332 324
270 262 253 255 256 265 251 242 241 254 238 233 246 239 250 249 250 263 237 250 259 279 300 272 206 201 225 246 249 244 241 271 300 290 308 319 331 337 332 337 342 339 345 346
298 313 302 276 287 261 244 242 252 260 241 238 240 239 240 239 227 224 238 262 274 283 267 183 178 198 232 242 221 165 221 348 2 34 355 347 348 349 351 350 350 351 353 357
289 285 287 283 279 249 231 253 267 271 243 238 240 238 230 232 228 234 227 259 283 234 175 169 182 216 239 162 178 113 58 25 34 16 2 1 7 6 6 2 4 7 9 6
268 259 288 327 228 117 211 238 256 246 258 228 219 191 184 195 196 212 206 258 191 159 159 167 204 221 197 183 160 175 123 20 11 9 7 23 21 21 18 15 17 18 18 19
276 255 256 264 281 296 294 276 270 282 252 244 234 230 212 185 197 231 210 194 175 160 156 166 167 178 152 151 150 148 181 351 18 24 18 17 20 26 19 17 19 21 22 21
353 289 213 222 277 301 301 279 274 239 234 207 232 238 229 221 202 199 182 152 155 157 167 169 157 144 133 130 143 143 200 301 29 18 2 9 30 34 27 27 27 28 27 25
53 40 40 72 56 32 71 103 108 155 182 159 134 138 141 170 170 154 147 147 144 145 141 152 153 137 131 130 96 150 172 6 15 20 26 40 46 35 35 34 32 29 27 26
64 76 86 85 89 94 96 103 108 107 107 106 106 109 116 121 127 132 135 137 143 141 146 141 144 145 127 104 144 151 135 15 34 76 72 60 47 45 39 35 30 27 26 26
74 76 83 86 79 89 88 87 103 104 107 107 107 111 112 117 124 128 134 136 137 143 143 140 154 126 106 108 143 111 43 55 97 86 70 65 54 40 32 32 30 27 33 33
82 83 80 75 76 81 89 89 97 99 104 109 122 115 121 130 133 133 136 134 126 129 132 136 127 123 132 122 141 77 72 74 84 76 66 62 56 45 47 50 47 45 45 48
73 80 75 72 73 76 78 95 99 91 97 104 106 113 123 131 125 127 124 123 121 122 122 114 102 93 98 119 108 79 73 73 73 74 71 68 56 58 62 63 64 62 59 56
75 70 73 74 75 74 74 79 87 90 98 103 106 110 117 121 119 117 117 118 119 124 118 112 105 96 100 123 106 99 94 94 88 90 81 74 67 63 65 66 64 63 61 58
75 75 69 63 65 73 77 65 65 109 111 105 110 117 121 120 118 118 118 117 118 124 109 99 102 127 112 109 107 104 97 93 89 83 78 76 74 71 69 68 66 64 61 58
69 46 55 69 71 90 94 87 63 75 120 117 109 114 122 120 113 114 117 124 130 125 113 104 100 103 110 114 115 107 98 93 92 90 85 81 78 79 78 74 70 66 61 58